Find Starlink 30393

NORAD ID: 57866 Int'l Des: 2023-144 Owner: SPXS Country: US Constellation: starlink operational
LEOCIRCULAR

Current View

Loading 3D Globe...

About Starlink 30393

Starlink 30393 (NORAD 57866) is a starlink constellation satellite (v2 mini) launched Sep 16, 2023 by SPXS of US. It operates in LEO, CIRCULAR orbit with a mass of 730.00 kg.

About Starlink 30393

Description loading...

Upcoming Passes

Passes for default location (London). Set your location on the main map for personalized predictions.

Altitude History

Loading altitude history...

Two-Line Element Set

1 57866U 23144C 26170.45246809 .00000629 00000-0 32394-4 0 9992
2 57866 43.0040 70.2519 0001514 273.9329 86.1350 15.27576905153161
Epoch: Jun 19, 2026 • Age: 17 hours

Current Status

Altitude 483.3 km
Velocity 7.63 km/s
Sub-Earth Point 23.98°N, 121.88°E
Launch Date Sep 16, 2023
Age 2.7 years
Type internet

Technical Details

Classification Payload
Mass 730.00 kg
Dry Mass 700.00 kg
Total Mass 730.00 kg
Length 0.30 m
Diameter 4.10 m
Span 29.00 m
Shape Box + pan
Manufacturer SPXS
Bus Type Starlink V2M
Phase Status In Orbit
Owner/State SPXS/US

Most Searched